| time (UTC) | temp F | wind direction | speed MPH | gust MPH | rain 1hr in | rain 24hr in | rain mn in | humidity % | barometer mb |
| 20260502211536 | 39 | 349 | 4.0 | 7.0 | 0.00 | 0.00 | 0.00 | 92 | 1020.2 |
| 20260502210524 | 39 | 338 | 3.0 | 7.0 | 0.00 | 0.00 | 0.00 | 92 | 1020.2 |
| 20260502205536 | 39 | 349 | 4.0 | 7.0 | 0.00 | 0.00 | 0.00 | 92 | 1020.2 |
| 20260502204529 | 39 | 329 | 4.0 | 7.0 | 0.00 | 0.00 | 0.00 | 92 | 1020.2 |
| 20260502203525 | 39 | 334 | 4.0 | 4.0 | 0.00 | 0.00 | 0.00 | 92 | 1020.3 |
| 20260502202544 | 39 | 338 | 3.0 | 7.0 | 0.00 | 0.00 | 0.00 | 92 | 1020.3 |
| 20260502201524 | 39 | 340 | 4.0 | 4.0 | 0.00 | 0.00 | 0.00 | 92 | 1020.4 |
| 20260502200544 | 39 | 338 | 2.0 | 4.0 | 0.00 | 0.00 | 0.00 | 92 | 1020.4 |
| 20260502195524 | 39 | 7 | 3.0 | 4.0 | 0.00 | 0.00 | 0.00 | 91 | 1020.5 |
| 20260502194524 | 39 | 21 | 4.0 | 4.0 | 0.00 | 0.00 | 0.00 | 90 | 1020.6 |
| 20260502193536 | 40 | 24 | 4.0 | 7.0 | 0.00 | 0.00 | 0.00 | 89 | 1020.5 |
| 20260502192524 | 40 | 25 | 3.0 | 4.0 | 0.00 | 0.00 | 0.00 | 89 | 1020.4 |
| 20260502191544 | 40 | 2 | 3.0 | 4.0 | 0.00 | 0.00 | 0.00 | 88 | 1020.4 |
| 20260502190524 | 40 | 15 | 2.0 | 4.0 | 0.00 | 0.00 | 0.00 | 89 | 1020.3 |
| 20260502185524 | 40 | 19 | 2.0 | 4.0 | 0.00 | 0.00 | 0.00 | 89 | 1020.3 |
| 20260502184524 | 40 | 23 | 2.0 | 4.0 | 0.00 | 0.00 | 0.00 | 89 | 1020.3 |
| 20260502183544 | 40 | 23 | 3.0 | 4.0 | 0.00 | 0.00 | 0.00 | 88 | 1020.3 |
| 20260502182604 | 42 | 26 | 4.0 | 4.0 | 0.00 | 0.00 | 0.00 | 84 | 1020.2 |
| 20260502181524 | 43 | 48 | 5.0 | 7.0 | 0.00 | 0.00 | 0.00 | 82 | 1020.2 |
| 20260502180536 | 43 | 51 | 4.0 | 4.0 | 0.00 | 0.00 | 0.00 | 81 | 1020.1 |
| 20260502163524 | 46 | 23 | 4.0 | 4.0 | 0.00 | 0.00 | 0.00 | 75 | 1020.0 |
| 20260502162524 | 46 | 67 | 2.0 | 4.0 | 0.00 | 0.00 | 0.00 | 77 | 1019.9 |
| 20260502161536 | 46 | 49 | 11.0 | 17.0 | 0.00 | 0.00 | 0.00 | 74 | 1020.0 |
| 20260502160536 | 47 | 20 | 10.0 | 15.0 | 0.00 | 0.00 | 0.00 | 71 | 1019.9 |
| 20260502151536 | 49 | 45 | 7.0 | 11.0 | 0.00 | 0.00 | 0.00 | 64 | 1019.9 |
| 20260502150524 | 50 | 54 | 8.0 | 11.0 | 0.00 | 0.00 | 0.00 | 60 | 1019.9 |
| 20260502130524 | 52 | 36 | 7.0 | 9.0 | 0.00 | 0.03 | 0.00 | 53 | 1020.2 |
| 20260502123524 | 52 | 63 | 6.0 | 11.0 | 0.00 | 0.03 | 0.00 | 51 | 1020.2 |
| 20260502122524 | 52 | 58 | 5.0 | 9.0 | 0.00 | 0.03 | 0.00 | 51 | 1020.2 |
| 20260502121524 | 53 | 72 | 6.0 | 9.0 | 0.00 | 0.03 | 0.00 | 50 | 1020.2 |
| 20260502120524 | 53 | 29 | 6.0 | 9.0 | 0.00 | 0.03 | 0.00 | 49 | 1020.4 |
| 20260502115524 | 54 | 47 | 7.0 | 11.0 | 0.00 | 0.03 | 0.00 | 48 | 1020.4 |
| 20260502114605 | 53 | 9 | 7.0 | 11.0 | 0.00 | 0.03 | 0.00 | 50 | 1020.5 |
| 20260502113524 | 52 | 37 | 7.0 | 9.0 | 0.00 | 0.03 | 0.00 | 49 | 1020.6 |
| 20260502112524 | 53 | 51 | 7.0 | 11.0 | 0.00 | 0.03 | 0.00 | 50 | 1020.6 |
| 20260502111536 | 53 | 27 | 9.0 | 17.0 | 0.00 | 0.03 | 0.00 | 49 | 1020.6 |
| 20260502110548 | 53 | 45 | 8.0 | 15.0 | 0.00 | 0.03 | 0.00 | 50 | 1020.7 |
| 20260502105524 | 53 | 72 | 7.0 | 11.0 | 0.00 | 0.03 | 0.00 | 51 | 1020.7 |
| 20260502104544 | 53 | 26 | 9.0 | 15.0 | 0.00 | 0.03 | 0.00 | 51 | 1020.8 |
| 20260502103524 | 52 | 23 | 9.0 | 15.0 | 0.00 | 0.03 | 0.00 | 54 | 1020.9 |
| 20260502102544 | 52 | 38 | 10.0 | 15.0 | 0.00 | 0.03 | 0.00 | 55 | 1021.0 |
| 20260502101524 | 52 | 27 | 9.0 | 17.0 | 0.00 | 0.03 | 0.00 | 55 | 1021.0 |
| 20260502100536 | 52 | 35 | 10.0 | 15.0 | 0.00 | 0.03 | 0.00 | 53 | 1021.0 |
| 20260502091524 | 53 | 57 | 8.0 | 11.0 | 0.00 | 0.03 | 0.00 | 47 | 1021.2 |
| 20260502090556 | 53 | 357 | 9.0 | 15.0 | 0.00 | 0.03 | 0.00 | 51 | 1021.3 |
| 20260502071524 | 52 | 40 | 8.0 | 15.0 | 0.00 | 0.03 | 0.00 | 49 | 1021.5 |
| 20260502070524 | 52 | 33 | 9.0 | 15.0 | 0.00 | 0.03 | 0.00 | 49 | 1021.5 |
| 20260502065536 | 52 | 8 | 9.0 | 15.0 | 0.00 | 0.03 | 0.00 | 50 | 1021.4 |
| 20260502064524 | 51 | 15 | 9.0 | 15.0 | 0.00 | 0.03 | 0.00 | 53 | 1021.5 |
| 20260502063524 | 51 | 24 | 8.0 | 11.0 | 0.00 | 0.03 | 0.00 | 50 | 1021.5 |
| 20260502062524 | 52 | 16 | 7.0 | 11.0 | 0.00 | 0.03 | 0.00 | 54 | 1021.4 |
| 20260502061605 | 51 | 352 | 7.0 | 11.0 | 0.00 | 0.03 | 0.00 | 56 | 1021.4 |
| 20260502060524 | 51 | 358 | 7.0 | 11.0 | 0.00 | 0.03 | 0.00 | 55 | 1021.4 |
| 20260502055544 | 50 | 2 | 6.0 | 9.0 | 0.00 | 0.03 | 0.00 | 64 | 1021.4 |
| 20260502054524 | 49 | 344 | 7.0 | 9.0 | 0.00 | 0.03 | 0.00 | 64 | 1021.4 |
| 20260502053548 | 49 | 353 | 6.0 | 11.0 | 0.00 | 0.03 | 0.00 | 65 | 1021.4 |
| 20260502052536 | 48 | 352 | 7.0 | 11.0 | 0.00 | 0.03 | 0.00 | 67 | 1021.4 |
| 20260502051556 | 47 | 338 | 6.0 | 11.0 | 0.00 | 0.03 | 0.00 | 68 | 1021.4 |
| 20260502050524 | 46 | 340 | 6.0 | 9.0 | 0.00 | 0.03 | 0.00 | 69 | 1021.4 |
| 20260502045536 | 45 | 344 | 6.0 | 9.0 | 0.00 | 0.03 | 0.00 | 71 | 1021.3 |
| 20260502044524 | 44 | 335 | 5.0 | 9.0 | 0.00 | 0.03 | 0.00 | 72 | 1021.3 |
| 20260502043524 | 43 | 341 | 6.0 | 9.0 | 0.00 | 0.03 | 0.00 | 73 | 1021.3 |
| 20260502042524 | 42 | 337 | 6.0 | 9.0 | 0.00 | 0.03 | 0.00 | 75 | 1021.4 |
| 20260502041524 | 41 | 337 | 5.0 | 9.0 | 0.00 | 0.03 | 0.00 | 76 | 1021.4 |
| 20260502040536 | 40 | 327 | 5.0 | 7.0 | 0.00 | 0.03 | 0.00 | 77 | 1021.3 |
| 20260502035524 | 39 | 322 | 5.0 | 7.0 | 0.00 | 0.03 | 0.00 | 78 | 1021.3 |
| 20260502034524 | 38 | 331 | 5.0 | 9.0 | 0.00 | 0.03 | 0.00 | 79 | 1021.3 |
| 20260502033524 | 38 | 321 | 5.0 | 9.0 | 0.00 | 0.03 | 0.00 | 79 | 1021.2 |
| 20260502032605 | 37 | 325 | 5.0 | 9.0 | 0.00 | 0.03 | 0.00 | 80 | 1021.2 |
| 20260502031536 | 36 | 327 | 5.0 | 7.0 | 0.00 | 0.03 | 0.00 | 83 | 1021.2 |
| 20260502030524 | 37 | 322 | 3.0 | 4.0 | 0.00 | 0.03 | 0.00 | 83 | 1021.2 |
| 20260502025536 | 37 | 318 | 5.0 | 9.0 | 0.00 | 0.03 | 0.00 | 82 | 1021.2 |
| 20260502024536 | 37 | 322 | 3.0 | 7.0 | 0.00 | 0.03 | 0.00 | 83 | 1021.2 |
| 20260502023524 | 37 | 326 | 3.0 | 7.0 | 0.00 | 0.03 | 0.00 | 83 | 1021.2 |
| 20260502022524 | 38 | 306 | 4.0 | 7.0 | 0.00 | 0.03 | 0.00 | 82 | 1021.3 |
| 20260502021524 | 37 | 305 | 3.0 | 7.0 | 0.00 | 0.03 | 0.00 | 83 | 1021.3 |
| 20260502020536 | 38 | 314 | 4.0 | 7.0 | 0.00 | 0.03 | 0.00 | 83 | 1021.4 |
| 20260502015544 | 38 | 311 | 4.0 | 7.0 | 0.00 | 0.03 | 0.00 | 83 | 1021.4 |
| 20260502014524 | 37 | 317 | 3.0 | 7.0 | 0.00 | 0.03 | 0.00 | 84 | 1021.4 |
| 20260502013524 | 37 | 326 | 3.0 | 7.0 | 0.00 | 0.03 | 0.00 | 84 | 1021.5 |
| 20260502012524 | 37 | 307 | 4.0 | 7.0 | 0.00 | 0.03 | 0.00 | 84 | 1021.6 |
| 20260502011524 | 37 | 316 | 3.0 | 7.0 | 0.00 | 0.03 | 0.00 | 84 | 1021.7 |
| 20260502010524 | 38 | 312 | 3.0 | 4.0 | 0.00 | 0.03 | 0.00 | 84 | 1021.8 |
| 20260502005524 | 38 | 314 | 4.0 | 7.0 | 0.00 | 0.03 | 0.00 | 84 | 1021.8 |
| 20260502004524 | 38 | 322 | 3.0 | 7.0 | 0.00 | 0.03 | 0.00 | 85 | 1021.9 |
| 20260502003544 | 38 | 310 | 4.0 | 7.0 | 0.00 | 0.03 | 0.00 | 85 | 1021.9 |
| 20260502002524 | 38 | 314 | 3.0 | 4.0 | 0.00 | 0.03 | 0.00 | 84 | 1022.0 |
| 20260502001524 | 38 | 319 | 4.0 | 7.0 | 0.00 | 0.03 | 0.00 | 84 | 1022.0 |
| 20260502000524 | 38 | 313 | 4.0 | 7.0 | 0.00 | 0.03 | 0.00 | 85 | 1022.1 |
| 20260501235536 | 38 | 316 | 3.0 | 7.0 | 0.00 | 0.03 | 0.00 | 86 | 1022.1 |
| 20260501234524 | 38 | 309 | 3.0 | 7.0 | 0.00 | 0.03 | 0.00 | 85 | 1022.2 |
| 20260501233524 | 38 | 311 | 3.0 | 7.0 | 0.00 | 0.03 | 0.00 | 84 | 1022.3 |
| 20260501232524 | 38 | 312 | 3.0 | 7.0 | 0.00 | 0.03 | 0.00 | 84 | 1022.4 |
| 20260501231544 | 38 | 317 | 3.0 | 7.0 | 0.00 | 0.03 | 0.00 | 84 | 1022.5 |
| 20260501230524 | 38 | 315 | 3.0 | 4.0 | 0.00 | 0.03 | 0.00 | 83 | 1022.5 |
| 20260501225524 | 38 | 316 | 3.0 | 4.0 | 0.00 | 0.03 | 0.00 | 83 | 1022.6 |
| 20260501224524 | 39 | 315 | 2.0 | 4.0 | 0.00 | 0.03 | 0.00 | 82 | 1022.7 |
| 20260501223524 | 39 | 315 | 2.0 | 4.0 | 0.00 | 0.03 | 0.00 | 81 | 1022.9 |
| 20260501222524 | 39 | 310 | 2.0 | 4.0 | 0.00 | 0.03 | 0.00 | 81 | 1023.0 |
| 20260501221544 | 39 | 311 | 2.0 | 4.0 | 0.00 | 0.03 | 0.00 | 82 | 1023.1 |
| 20260501220524 | 38 | 300 | 1.0 | 2.0 | 0.00 | 0.03 | 0.00 | 84 | 1023.1 |
| 20260501215524 | 39 | 315 | 1.0 | 2.0 | 0.00 | 0.05 | 0.00 | 82 | 1023.2 |
| 20260501214524 | 39 | 325 | 2.0 | 4.0 | 0.00 | 0.05 | 0.00 | 81 | 1023.3 |
| 20260501213524 | 40 | 315 | 1.0 | 4.0 | 0.00 | 0.05 | 0.00 | 81 | 1023.3 |
| 20260501212524 | 39 | 307 | 1.0 | 4.0 | 0.00 | 0.05 | 0.00 | 82 | 1023.3 |